Location: Eexterzandvoort
(53.0303°N, 6.7884°E)
Time: 20:30:10
(UTC+00:00)

Cosmos 1356 Rocket - Pass Details

Date: 19 May 2025
Orbit: 517 x 566 km, 81.2° (Epoch: 20 June)

Event Time Altitude Azimuth Distance (km) Brightness Sun altitude
Exits shadow 20:28:26 - 155° (SSE) 2,019 5.6 -7.2°
Reaches altitude 10° 20:28:53 10° 153° (SSE) 1,861 5.4 -7.2°
Maximum altitude 20:32:27 29° 92° (E) 1,048 4.4 -7.6°
Drops below altitude 10° 20:36:01 10° 32° (NNE) 1,861 6.3 -8.0°
Sets 20:38:23 0° 21° (NNE) 2,754 7.3 -8.2°
